Time,TemperatureF,DewpointF,PressureIn,WindDirection,WindDirectionDegrees,WindSpeedMPH,WindSpeedGustMPH,Humidity,HourlyPrecipIn,Conditions,Clouds,dailyrainin,SoftwareType,DateUTC
2013-09-23 00:04:00,54.0,45.2,30.00,North,0,1.6,4.3,72,0.00,,,0.00,VWS V14.01,2013-09-23 05:04:00,
2013-09-23 00:09:00,53.8,45.0,30.00,NE,45,3.8,4.3,72,0.00,,,0.00,VWS V14.01,2013-09-23 05:09:00,
2013-09-23 00:14:00,53.6,44.8,30.00,ENE,68,1.6,3.8,72,0.00,,,0.00,VWS V14.01,2013-09-23 05:14:00,
2013-09-23 00:19:00,53.6,44.8,30.00,NNE,22,1.3,4.9,72,0.00,,,0.00,VWS V14.01,2013-09-23 05:19:00,
2013-09-23 00:25:00,53.4,45.0,30.00,NE,45,4.3,4.9,73,0.00,,,0.00,VWS V14.01,2013-09-23 05:25:00,
2013-09-23 00:29:00,53.2,44.8,30.00,NNE,22,3.8,5.4,73,0.00,,,0.00,VWS V14.01,2013-09-23 05:29:00,
2013-09-23 00:39:00,53.1,44.7,30.00,ENE,68,1.1,4.5,73,0.00,,,0.00,VWS V14.01,2013-09-23 05:39:00,
2013-09-23 00:49:00,52.9,44.5,30.00,ENE,68,3.4,5.8,73,0.00,,,0.00,VWS V14.01,2013-09-23 05:49:00,
2013-09-23 00:54:00,52.7,43.9,30.00,ENE,68,3.6,7.8,72,0.00,,,0.00,VWS V14.01,2013-09-23 05:54:00,
2013-09-23 00:59:00,52.7,43.9,30.00,NE,45,2.5,5.8,72,0.00,,,0.00,VWS V14.01,2013-09-23 05:59:00,
2013-09-23 01:09:00,52.3,44.0,30.00,North,0,2.5,3.1,73,0.00,,,0.00,VWS V14.01,2013-09-23 06:09:00,
2013-09-23 01:14:00,52.2,43.8,30.00,ENE,68,2.5,3.6,73,0.00,,,0.00,VWS V14.01,2013-09-23 06:14:00,
2013-09-23 01:20:00,52.0,43.6,30.00,ENE,68,2.9,3.6,73,0.00,,,0.00,VWS V14.01,2013-09-23 06:20:00,
2013-09-23 01:29:00,51.6,43.6,30.00,ESE,112,2.9,3.8,74,0.00,,,0.00,VWS V14.01,2013-09-23 06:29:00,
2013-09-23 01:34:00,51.6,43.6,30.00,ENE,68,1.6,3.8,74,0.00,,,0.00,VWS V14.01,2013-09-23 06:34:00,
2013-09-23 01:39:00,51.4,43.4,30.00,NNW,338,1.1,3.4,74,0.00,,,0.00,VWS V14.01,2013-09-23 06:39:00,
2013-09-23 01:49:00,51.3,43.3,30.03,NNE,22,2.0,2.9,74,0.00,,,0.00,VWS V14.01,2013-09-23 06:49:00,
2013-09-23 01:54:00,51.1,43.4,30.03,NE,45,2.9,3.8,75,0.00,,,0.00,VWS V14.01,2013-09-23 06:54:00,
2013-09-23 01:59:00,50.9,43.3,30.03,SW,225,2.2,5.4,75,0.00,,,0.00,VWS V14.01,2013-09-23 06:59:00,
2013-09-23 02:04:00,50.9,43.3,30.03,NE,45,0.0,3.8,75,0.00,,,0.00,VWS V14.01,2013-09-23 07:04:00,
2013-09-23 02:09:00,50.7,43.4,30.03,NE,45,0.0,3.4,76,0.00,,,0.00,VWS V14.01,2013-09-23 07:09:00,
2013-09-23 02:19:00,50.5,43.3,30.03,NE,45,2.9,4.0,76,0.00,,,0.00,VWS V14.01,2013-09-23 07:19:00,
2013-09-23 02:24:00,50.4,43.4,30.03,ENE,68,1.1,3.1,77,0.00,,,0.00,VWS V14.01,2013-09-23 07:24:00,
2013-09-23 02:29:00,50.2,43.3,30.03,NNE,22,0.0,2.9,77,0.00,,,0.00,VWS V14.01,2013-09-23 07:29:00,
2013-09-23 02:34:00,50.2,43.6,30.03,NE,45,1.6,3.6,78,0.00,,,0.00,VWS V14.01,2013-09-23 07:34:00,
2013-09-23 02:39:00,50.0,43.4,30.03,ENE,68,1.3,2.0,78,0.00,,,0.00,VWS V14.01,2013-09-23 07:39:00,
2013-09-23 02:49:00,49.5,43.6,30.03,NNE,22,2.7,3.6,80,0.00,,,0.00,VWS V14.01,2013-09-23 07:49:00,
2013-09-23 03:04:00,49.1,43.5,30.03,ENE,68,3.1,4.3,81,0.00,,,0.00,VWS V14.01,2013-09-23 08:04:00,
2013-09-23 03:09:00,49.1,43.5,30.03,ENE,68,2.7,3.1,81,0.00,,,0.00,VWS V14.01,2013-09-23 08:09:00,
2013-09-23 03:19:00,48.7,43.5,30.03,ENE,68,2.7,3.8,82,0.00,,,0.00,VWS V14.01,2013-09-23 08:19:00,
2013-09-23 03:24:00,48.7,43.8,30.03,NE,45,1.6,2.7,83,0.00,,,0.00,VWS V14.01,2013-09-23 08:24:00,
2013-09-23 03:34:00,48.6,43.6,30.03,NNE,22,2.5,3.4,83,0.00,,,0.00,VWS V14.01,2013-09-23 08:34:00,
2013-09-23 03:39:00,48.6,44.0,30.03,NE,45,0.0,2.5,84,0.00,,,0.00,VWS V14.01,2013-09-23 08:39:00,
2013-09-23 03:45:00,48.4,43.8,30.03,East,90,2.7,2.7,84,0.00,,,0.00,VWS V14.01,2013-09-23 08:45:00,
2013-09-23 03:54:00,48.4,44.4,30.03,NE,45,4.0,4.0,86,0.00,,,0.00,VWS V14.01,2013-09-23 08:54:00,
2013-09-23 03:59:00,48.4,44.4,30.03,NE,45,0.0,4.0,86,0.00,,,0.00,VWS V14.01,2013-09-23 08:59:00,
2013-09-23 04:09:00,48.6,44.9,30.03,NNE,22,2.5,3.4,87,0.00,,,0.00,VWS V14.01,2013-09-23 09:09:00,
2013-09-23 04:14:00,48.6,44.9,30.03,ENE,68,1.6,4.3,87,0.00,,,0.00,VWS V14.01,2013-09-23 09:14:00,
2013-09-23 04:25:00,48.4,44.7,30.03,NE,45,1.3,3.1,87,0.00,,,0.00,VWS V14.01,2013-09-23 09:25:00,
2013-09-23 04:34:00,48.2,45.1,30.03,NE,45,0.0,4.0,89,0.00,,,0.00,VWS V14.01,2013-09-23 09:34:00,
2013-09-23 04:44:00,48.0,44.9,30.03,ENE,68,1.3,3.1,89,0.00,,,0.00,VWS V14.01,2013-09-23 09:44:00,
2013-09-23 04:49:00,48.0,45.2,30.03,ENE,68,2.0,2.5,90,0.00,,,0.00,VWS V14.01,2013-09-23 09:49:00,
2013-09-23 04:54:00,47.8,44.8,30.03,NE,45,1.1,3.6,89,0.00,,,0.00,VWS V14.01,2013-09-23 09:54:00,
2013-09-23 05:04:00,47.7,44.9,30.03,ENE,68,1.6,3.6,90,0.00,,,0.00,VWS V14.01,2013-09-23 10:04:00,
2013-09-23 05:14:00,47.5,45.0,30.03,ENE,68,1.1,3.4,91,0.00,,,0.00,VWS V14.01,2013-09-23 10:14:00,
2013-09-23 05:19:00,47.3,44.8,30.03,NNE,22,1.6,3.4,91,0.00,,,0.00,VWS V14.01,2013-09-23 10:19:00,
2013-09-23 05:24:00,47.3,44.8,30.03,ENE,68,2.0,2.0,91,0.00,,,0.00,VWS V14.01,2013-09-23 10:24:00,
2013-09-23 05:29:00,47.3,44.8,30.03,North,0,2.0,3.8,91,0.00,,,0.00,VWS V14.01,2013-09-23 10:29:00,
2013-09-23 05:34:00,47.1,44.9,30.03,ENE,68,2.9,2.9,92,0.00,,,0.00,VWS V14.01,2013-09-23 10:34:00,
2013-09-23 05:39:00,47.1,45.2,30.03,NE,45,2.5,3.8,93,0.00,,,0.00,VWS V14.01,2013-09-23 10:39:00,
2013-09-23 05:44:00,47.1,45.2,30.03,NE,45,1.3,4.0,93,0.00,,,0.00,VWS V14.01,2013-09-23 10:44:00,
2013-09-23 05:54:00,46.9,45.0,30.03,NE,45,3.4,3.4,93,0.00,,,0.00,VWS V14.01,2013-09-23 10:54:00,
2013-09-23 05:59:00,46.9,45.3,30.03,NE,45,3.1,3.4,94,0.00,,,0.00,VWS V14.01,2013-09-23 10:59:00,
2013-09-23 06:04:00,46.8,45.1,30.03,East,90,1.3,3.6,94,0.00,,,0.00,VWS V14.01,2013-09-23 11:04:00,
2013-09-23 06:09:00,46.8,45.1,30.03,ENE,68,0.9,3.1,94,0.00,,,0.00,VWS V14.01,2013-09-23 11:09:00,
2013-09-23 06:14:00,46.8,45.1,30.03,ENE,68,3.1,4.0,94,0.00,,,0.00,VWS V14.01,2013-09-23 11:14:00,
2013-09-23 06:24:00,46.6,45.2,30.03,East,90,2.5,3.4,95,0.00,,,0.00,VWS V14.01,2013-09-23 11:24:00,
2013-09-23 06:29:00,46.6,45.2,30.03,NE,45,1.6,171.9,95,0.00,,,0.00,VWS V14.01,2013-09-23 11:29:00,
2013-09-23 06:34:00,46.6,45.2,30.03,ENE,68,1.1,2.2,95,0.00,,,0.00,VWS V14.01,2013-09-23 11:34:00,
2013-09-23 06:39:00,46.6,45.2,30.03,ENE,68,1.6,3.1,95,0.00,,,0.00,VWS V14.01,2013-09-23 11:39:00,
2013-09-23 06:44:00,46.4,45.0,30.03,ENE,68,0.9,171.9,95,0.00,,,0.00,VWS V14.01,2013-09-23 11:44:00,
2013-09-23 06:54:00,46.4,45.0,30.03,ENE,68,1.6,4.3,95,0.00,,,0.00,VWS V14.01,2013-09-23 11:54:00,
2013-09-23 07:00:00,46.4,45.0,30.03,NE,45,0.0,3.6,95,0.00,,,0.00,VWS V14.01,2013-09-23 12:00:00,
2013-09-23 07:10:00,46.6,45.5,30.06,ENE,68,0.9,3.6,96,0.00,,,0.00,VWS V14.01,2013-09-23 12:10:00,
2013-09-23 07:19:00,46.6,45.2,30.06,North,0,2.0,3.1,95,0.00,,,0.00,VWS V14.01,2013-09-23 12:19:00,
2013-09-23 07:29:00,46.8,45.7,30.06,NNE,22,2.5,4.7,96,0.00,,,0.00,VWS V14.01,2013-09-23 12:29:00,
2013-09-23 07:34:00,46.9,45.9,30.06,ENE,68,2.7,2.9,96,0.00,,,0.00,VWS V14.01,2013-09-23 12:34:00,
2013-09-23 07:39:00,47.1,46.0,30.06,ENE,68,2.9,3.8,96,0.00,,,0.00,VWS V14.01,2013-09-23 12:39:00,
2013-09-23 07:44:00,47.3,46.2,30.06,ENE,68,1.3,5.4,96,0.00,,,0.00,VWS V14.01,2013-09-23 12:44:00,
2013-09-23 07:49:00,47.5,46.4,30.06,ENE,68,0.9,2.9,96,0.00,,,0.00,VWS V14.01,2013-09-23 12:49:00,
2013-09-23 07:54:00,47.8,46.8,30.06,NNE,22,1.1,6.5,96,0.00,,,0.00,VWS V14.01,2013-09-23 12:54:00,
2013-09-23 08:04:00,48.2,46.8,30.03,East,90,2.5,4.3,95,0.00,,,0.00,VWS V14.01,2013-09-23 13:04:00,
2013-09-23 08:09:00,48.4,47.0,30.03,NE,45,4.7,4.7,95,0.00,,,0.00,VWS V14.01,2013-09-23 13:09:00,
2013-09-23 08:14:00,48.7,47.1,30.03,NNE,22,2.7,6.0,94,0.00,,,0.00,VWS V14.01,2013-09-23 13:14:00,
2013-09-23 08:19:00,48.9,47.3,30.06,ENE,68,1.3,5.8,94,0.00,,,0.00,VWS V14.01,2013-09-23 13:19:00,
2013-09-23 08:24:00,49.3,47.3,30.06,NNE,22,3.6,5.8,93,0.00,,,0.00,VWS V14.01,2013-09-23 13:24:00,
2013-09-23 08:29:00,49.5,47.5,30.06,NE,45,2.2,4.9,93,0.00,,,0.00,VWS V14.01,2013-09-23 13:29:00,
2013-09-23 08:39:00,50.4,48.1,30.03,NE,45,2.5,4.9,92,0.00,,,0.00,VWS V14.01,2013-09-23 13:39:00,
2013-09-23 08:44:00,51.3,48.7,30.03,SE,135,0.9,4.3,91,0.00,,,0.00,VWS V14.01,2013-09-23 13:44:00,
2013-09-23 08:49:00,52.0,48.8,30.06,ENE,68,2.2,4.9,89,0.00,,,0.00,VWS V14.01,2013-09-23 13:49:00,
2013-09-23 08:59:00,53.1,49.0,30.06,NE,45,1.1,5.6,86,0.00,,,0.00,VWS V14.01,2013-09-23 13:59:00,
2013-09-23 09:04:00,53.4,49.0,30.03,WSW,248,3.8,5.6,85,0.00,,,0.00,VWS V14.01,2013-09-23 14:04:00,
2013-09-23 09:14:00,54.1,49.1,30.03,ENE,68,4.0,5.4,83,0.00,,,0.00,VWS V14.01,2013-09-23 14:14:00,
2013-09-23 09:24:00,55.2,49.8,30.03,East,90,7.2,7.2,82,0.00,,,0.00,VWS V14.01,2013-09-23 14:24:00,
2013-09-23 09:29:00,55.6,49.8,30.03,NE,45,1.3,7.4,81,0.00,,,0.00,VWS V14.01,2013-09-23 14:29:00,
2013-09-23 09:45:00,56.7,49.5,30.06,SSE,158,2.5,8.7,77,0.00,,,0.00,VWS V14.01,2013-09-23 14:45:00,
2013-09-23 09:54:00,57.6,49.7,30.06,SSE,158,0.0,6.5,75,0.00,,,0.00,VWS V14.01,2013-09-23 14:54:00,
2013-09-23 10:04:00,58.1,49.5,30.06,NNW,338,1.3,5.6,73,0.00,,,0.00,VWS V14.01,2013-09-23 15:04:00,
2013-09-23 10:09:00,58.6,50.4,30.06,SE,135,2.0,6.0,74,0.00,,,0.00,VWS V14.01,2013-09-23 15:09:00,
2013-09-23 10:14:00,59.2,50.2,30.06,NNE,22,2.0,5.6,72,0.00,,,0.00,VWS V14.01,2013-09-23 15:14:00,
2013-09-23 10:24:00,59.5,50.1,30.03,East,90,2.7,7.2,71,0.00,,,0.00,VWS V14.01,2013-09-23 15:24:00,
2013-09-23 10:29:00,60.1,50.7,30.03,ESE,112,1.6,3.4,71,0.00,,,0.00,VWS V14.01,2013-09-23 15:29:00,
2013-09-23 10:34:00,60.3,50.5,30.03,NE,45,3.8,4.9,70,0.00,,,0.00,VWS V14.01,2013-09-23 15:34:00,
2013-09-23 10:39:00,60.3,50.1,30.03,South,180,4.0,5.6,69,0.00,,,0.00,VWS V14.01,2013-09-23 15:39:00,
2013-09-23 10:44:00,60.6,50.0,30.03,NE,45,5.8,6.5,68,0.00,,,0.00,VWS V14.01,2013-09-23 15:44:00,
2013-09-23 10:49:00,61.2,50.5,30.06,SSE,158,2.5,5.8,68,0.00,,,0.00,VWS V14.01,2013-09-23 15:49:00,
2013-09-23 10:59:00,61.9,50.8,30.06,ENE,68,4.3,4.9,67,0.00,,,0.00,VWS V14.01,2013-09-23 15:59:00,
2013-09-23 11:04:00,62.8,51.3,30.03,ENE,68,3.6,4.7,66,0.00,,,0.00,VWS V14.01,2013-09-23 16:04:00,
2013-09-23 11:09:00,63.1,50.8,30.03,NNE,22,2.5,5.8,64,0.00,,,0.00,VWS V14.01,2013-09-23 16:09:00,
2013-09-23 11:14:00,63.5,51.1,30.03,SSE,158,3.4,5.4,64,0.00,,,0.00,VWS V14.01,2013-09-23 16:14:00,
2013-09-23 11:19:00,63.7,51.3,30.06,WNW,292,1.6,4.9,64,0.00,,,0.00,VWS V14.01,2013-09-23 16:19:00,
2013-09-23 11:24:00,64.2,51.8,30.06,West,270,2.0,3.6,64,0.00,,,0.00,VWS V14.01,2013-09-23 16:24:00,
2013-09-23 11:34:00,64.4,51.1,30.06,East,90,3.4,6.5,62,0.00,,,0.00,VWS V14.01,2013-09-23 16:34:00,
2013-09-23 11:39:00,64.6,50.8,30.06,NE,45,3.4,6.0,61,0.00,,,0.00,VWS V14.01,2013-09-23 16:39:00,
2013-09-23 11:49:00,65.3,50.6,30.06,SE,135,2.7,3.8,59,0.00,,,0.00,VWS V14.01,2013-09-23 16:49:00,
2013-09-23 11:54:00,65.1,50.5,30.06,West,270,5.8,5.8,59,0.00,,,0.00,VWS V14.01,2013-09-23 16:54:00,
2013-09-23 11:59:00,64.8,50.1,30.06,NNW,338,2.0,7.2,59,0.00,,,0.00,VWS V14.01,2013-09-23 16:59:00,
2013-09-23 12:05:00,65.1,50.5,30.06,ESE,112,3.1,4.7,59,0.00,,,0.00,VWS V14.01,2013-09-23 17:05:00,
2013-09-23 12:14:00,66.9,51.2,30.06,South,180,2.0,3.6,57,0.00,,,0.00,VWS V14.01,2013-09-23 17:14:00,
2013-09-23 12:19:00,67.3,51.1,30.06,NNW,338,4.0,9.0,56,0.00,,,0.00,VWS V14.01,2013-09-23 17:19:00,
2013-09-23 12:24:00,67.3,50.1,30.06,NW,315,3.1,4.3,54,0.00,,,0.00,VWS V14.01,2013-09-23 17:24:00,
2013-09-23 12:29:00,67.8,51.1,30.06,NE,45,2.9,5.4,55,0.00,,,0.00,VWS V14.01,2013-09-23 17:29:00,
2013-09-23 12:34:00,68.2,51.4,30.06,SW,225,0.0,6.3,55,0.00,,,0.00,VWS V14.01,2013-09-23 17:34:00,
2013-09-23 12:44:00,68.2,50.4,30.06,North,0,3.1,4.3,53,0.00,,,0.00,VWS V14.01,2013-09-23 17:44:00,
2013-09-23 12:54:00,67.8,50.6,30.06,SSE,158,1.6,7.8,54,0.00,,,0.00,VWS V14.01,2013-09-23 17:54:00,
2013-09-23 12:59:00,68.2,50.9,30.06,NE,45,5.6,5.6,54,0.00,,,0.00,VWS V14.01,2013-09-23 17:59:00,
2013-09-23 13:04:00,68.0,50.2,30.03,SSW,202,1.1,6.5,53,0.00,,,0.00,VWS V14.01,2013-09-23 18:04:00,
2013-09-23 13:09:00,68.0,50.2,30.03,NNW,338,1.6,7.4,53,0.00,,,0.00,VWS V14.01,2013-09-23 18:09:00,
2013-09-23 13:19:00,68.2,50.4,30.03,NE,45,2.7,7.6,53,0.00,,,0.00,VWS V14.01,2013-09-23 18:19:00,
2013-09-23 13:24:00,69.3,51.4,30.03,East,90,4.3,5.8,53,0.00,,,0.00,VWS V14.01,2013-09-23 18:24:00,
2013-09-23 13:34:00,69.3,50.4,30.03,ENE,68,4.9,10.3,51,0.00,,,0.00,VWS V14.01,2013-09-23 18:34:00,
2013-09-23 13:39:00,69.6,50.7,30.03,ENE,68,3.8,5.6,51,0.00,,,0.00,VWS V14.01,2013-09-23 18:39:00,
2013-09-23 13:49:00,70.5,51.5,30.00,East,90,3.4,8.1,51,0.00,,,0.00,VWS V14.01,2013-09-23 18:49:00,
2013-09-23 13:54:00,70.9,50.8,30.00,NNE,22,1.6,6.3,49,0.00,,,0.00,VWS V14.01,2013-09-23 18:54:00,
2013-09-23 13:59:00,71.2,50.0,30.00,ESE,112,2.0,4.5,47,0.00,,,0.00,VWS V14.01,2013-09-23 18:59:00,
2013-09-23 14:04:00,71.6,50.3,30.00,North,0,1.1,6.3,47,0.00,,,0.00,VWS V14.01,2013-09-23 19:04:00,
2013-09-23 14:09:00,71.4,50.2,30.00,NE,45,3.1,6.9,47,0.00,,,0.00,VWS V14.01,2013-09-23 19:09:00,
2013-09-23 14:19:00,71.6,50.3,29.97,NE,45,5.8,7.2,47,0.00,,,0.00,VWS V14.01,2013-09-23 19:19:00,
2013-09-23 14:29:00,71.4,50.2,29.97,NE,45,4.3,7.8,47,0.00,,,0.00,VWS V14.01,2013-09-23 19:29:00,
2013-09-23 14:34:00,71.4,49.6,30.00,ESE,112,2.5,10.3,46,0.00,,,0.00,VWS V14.01,2013-09-23 19:34:00,
2013-09-23 14:39:00,71.1,49.3,30.00,NE,45,4.7,6.0,46,0.00,,,0.00,VWS V14.01,2013-09-23 19:39:00,
2013-09-23 14:44:00,71.1,49.3,30.00,ESE,112,4.0,7.4,46,0.00,,,0.00,VWS V14.01,2013-09-23 19:44:00,
2013-09-23 14:54:00,71.6,49.8,30.00,WSW,248,4.0,5.8,46,0.00,,,0.00,VWS V14.01,2013-09-23 19:54:00,
2013-09-23 15:04:00,71.6,49.8,30.00,SSW,202,5.6,5.8,46,0.00,,,0.00,VWS V14.01,2013-09-23 20:04:00,
2013-09-23 15:09:00,72.0,50.1,30.00,NNW,338,3.1,7.8,46,0.00,,,0.00,VWS V14.01,2013-09-23 20:09:00,
2013-09-23 15:14:00,72.0,49.5,30.00,ESE,112,2.9,7.4,45,0.00,,,0.00,VWS V14.01,2013-09-23 20:14:00,
2013-09-23 15:19:00,71.6,49.2,30.00,NE,45,2.7,7.8,45,0.00,,,0.00,VWS V14.01,2013-09-23 20:19:00,
2013-09-23 15:29:00,71.6,49.2,30.00,NE,45,4.0,5.8,45,0.00,,,0.00,VWS V14.01,2013-09-23 20:29:00,
2013-09-23 15:35:00,71.8,49.3,30.00,NE,45,2.0,4.7,45,0.00,,,0.00,VWS V14.01,2013-09-23 20:35:00,
2013-09-23 15:44:00,72.0,50.1,30.03,NNE,22,5.4,5.4,46,0.00,,,0.00,VWS V14.01,2013-09-23 20:44:00,
2013-09-23 15:49:00,72.1,49.7,30.03,NNE,22,5.4,5.4,45,0.00,,,0.00,VWS V14.01,2013-09-23 20:49:00,
2013-09-23 15:54:00,72.3,49.8,30.00,NNE,22,2.0,6.0,45,0.00,,,0.00,VWS V14.01,2013-09-23 20:54:00,
2013-09-23 16:04:00,72.3,49.8,30.00,NE,45,2.5,7.2,45,0.00,,,0.00,VWS V14.01,2013-09-23 21:04:00,
2013-09-23 16:14:00,72.1,49.0,30.00,ENE,68,1.3,4.9,44,0.00,,,0.00,VWS V14.01,2013-09-23 21:14:00,
2013-09-23 16:19:00,72.1,49.7,30.00,ENE,68,6.5,7.2,45,0.00,,,0.00,VWS V14.01,2013-09-23 21:19:00,
2013-09-23 16:24:00,71.8,48.7,30.00,East,90,4.3,6.5,44,0.00,,,0.00,VWS V14.01,2013-09-23 21:24:00,
2013-09-23 16:30:00,71.6,48.6,30.00,NNW,338,2.9,6.0,44,0.00,,,0.00,VWS V14.01,2013-09-23 21:30:00,
2013-09-23 16:39:00,71.6,49.2,30.00,ESE,112,4.3,8.1,45,0.00,,,0.00,VWS V14.01,2013-09-23 21:39:00,
2013-09-23 16:49:00,71.6,49.2,30.00,NNW,338,3.4,4.9,45,0.00,,,0.00,VWS V14.01,2013-09-23 21:49:00,
2013-09-23 16:54:00,71.8,49.3,30.00,SW,225,2.9,4.0,45,0.00,,,0.00,VWS V14.01,2013-09-23 21:54:00,
2013-09-23 16:59:00,71.8,49.3,30.00,East,90,3.6,5.4,45,0.00,,,0.00,VWS V14.01,2013-09-23 21:59:00,
2013-09-23 17:04:00,71.4,49.0,30.00,ESE,112,7.4,7.4,45,0.00,,,0.00,VWS V14.01,2013-09-23 22:04:00,
2013-09-23 17:14:00,71.1,48.7,30.00,ENE,68,4.7,6.5,45,0.00,,,0.00,VWS V14.01,2013-09-23 22:14:00,
2013-09-23 17:24:00,70.9,48.5,30.00,West,270,4.9,5.8,45,0.00,,,0.00,VWS V14.01,2013-09-23 22:24:00,
2013-09-23 17:30:00,70.7,48.9,30.00,ENE,68,5.4,6.5,46,0.00,,,0.00,VWS V14.01,2013-09-23 22:30:00,
2013-09-23 17:39:00,69.3,48.2,30.00,ENE,68,3.8,4.3,47,0.00,,,0.00,VWS V14.01,2013-09-23 22:39:00,
2013-09-23 17:44:00,68.7,47.7,30.00,NNE,22,3.4,8.7,47,0.00,,,0.00,VWS V14.01,2013-09-23 22:44:00,
2013-09-23 17:49:00,68.5,48.1,30.00,NE,45,2.2,6.5,48,0.00,,,0.00,VWS V14.01,2013-09-23 22:49:00,
2013-09-23 17:59:00,67.8,48.0,30.00,ENE,68,2.7,6.3,49,0.00,,,0.00,VWS V14.01,2013-09-23 22:59:00,
2013-09-23 18:04:00,67.6,48.4,30.00,NE,45,3.6,4.3,50,0.00,,,0.00,VWS V14.01,2013-09-23 23:04:00,
2013-09-23 18:14:00,67.1,48.4,30.00,East,90,0.0,3.6,51,0.00,,,0.00,VWS V14.01,2013-09-23 23:14:00,
2013-09-23 18:20:00,66.7,48.1,30.00,ENE,68,0.0,2.7,51,0.00,,,0.00,VWS V14.01,2013-09-23 23:20:00,
2013-09-23 18:29:00,66.0,48.9,30.00,ENE,68,4.0,4.0,54,0.00,,,0.00,VWS V14.01,2013-09-23 23:29:00,
2013-09-23 18:34:00,66.0,48.9,30.00,NNW,338,0.0,4.0,54,0.00,,,0.00,VWS V14.01,2013-09-23 23:34:00,
2013-09-23 18:44:00,65.7,49.1,30.00,ESE,112,3.8,3.8,55,0.00,,,0.00,VWS V14.01,2013-09-23 23:44:00,
2013-09-23 18:49:00,65.3,48.7,30.00,NE,45,0.0,3.8,55,0.00,,,0.00,VWS V14.01,2013-09-23 23:49:00,
2013-09-23 18:59:00,64.4,48.8,30.00,NNE,22,0.0,2.0,57,0.00,,,0.00,VWS V14.01,2013-09-23 23:59:00,
2013-09-23 19:05:00,63.9,48.8,30.00,East,90,0.0,1.1,58,0.00,,,0.00,VWS V14.01,2013-09-24 00:05:00,
2013-09-23 19:14:00,62.8,48.7,30.03,ENE,68,0.0,2.5,60,0.00,,,0.00,VWS V14.01,2013-09-24 00:14:00,
2013-09-23 19:19:00,62.1,48.9,30.00,ENE,68,0.0,0.0,62,0.00,,,0.00,VWS V14.01,2013-09-24 00:19:00,
2013-09-23 19:24:00,61.7,48.6,30.00,East,90,0.0,1.3,62,0.00,,,0.00,VWS V14.01,2013-09-24 00:24:00,
2013-09-23 19:34:00,61.2,49.7,29.97,East,90,2.7,2.7,66,0.00,,,0.00,VWS V14.01,2013-09-24 00:34:00,
2013-09-23 19:39:00,60.8,49.4,29.97,NE,45,1.3,2.7,66,0.00,,,0.00,VWS V14.01,2013-09-24 00:39:00,
2013-09-23 19:44:00,60.6,50.0,29.97,NE,45,0.0,1.3,68,0.00,,,0.00,VWS V14.01,2013-09-24 00:44:00,
2013-09-23 19:49:00,60.6,50.0,30.00,NE,45,1.3,2.7,68,0.00,,,0.00,VWS V14.01,2013-09-24 00:49:00,
2013-09-23 19:54:00,60.4,50.2,30.00,ENE,68,2.2,3.8,69,0.00,,,0.00,VWS V14.01,2013-09-24 00:54:00,
2013-09-23 19:59:00,60.6,50.4,30.00,NE,45,0.0,2.2,69,0.00,,,0.00,VWS V14.01,2013-09-24 00:59:00,
2013-09-23 20:09:00,60.4,50.2,29.97,ENE,68,0.0,1.6,69,0.00,,,0.00,VWS V14.01,2013-09-24 01:09:00,
2013-09-23 20:19:00,60.1,50.3,30.00,NE,45,0.0,4.3,70,0.00,,,0.00,VWS V14.01,2013-09-24 01:19:00,
2013-09-23 20:24:00,59.9,50.1,30.00,ENE,68,0.0,2.2,70,0.00,,,0.00,VWS V14.01,2013-09-24 01:24:00,
2013-09-23 20:29:00,59.4,49.6,30.00,ENE,68,0.0,0.0,70,0.00,,,0.00,VWS V14.01,2013-09-24 01:29:00,
2013-09-23 20:35:00,59.0,49.6,29.97,ENE,68,1.1,2.5,71,0.00,,,0.00,VWS V14.01,2013-09-24 01:35:00,
2013-09-23 20:44:00,58.5,49.5,29.97,NE,45,2.7,2.7,72,0.00,,,0.00,VWS V14.01,2013-09-24 01:44:00,
2013-09-23 20:55:00,58.1,49.9,30.00,NE,45,0.0,2.5,74,0.00,,,0.00,VWS V14.01,2013-09-24 01:55:00,
2013-09-23 21:04:00,56.7,48.5,30.00,ENE,68,0.0,0.0,74,0.00,,,0.00,VWS V14.01,2013-09-24 02:04:00,
2013-09-23 21:09:00,56.1,48.3,30.00,ENE,68,0.0,0.0,75,0.00,,,0.00,VWS V14.01,2013-09-24 02:09:00,
2013-09-23 21:15:00,55.6,48.2,30.00,ENE,68,0.0,0.0,76,0.00,,,0.00,VWS V14.01,2013-09-24 02:15:00,
2013-09-23 21:24:00,54.3,47.6,30.00,ENE,68,0.0,0.0,78,0.00,,,0.00,VWS V14.01,2013-09-24 02:24:00,
2013-09-23 21:29:00,53.8,47.4,30.00,ENE,68,0.0,0.0,79,0.00,,,0.00,VWS V14.01,2013-09-24 02:29:00,
2013-09-23 21:35:00,53.2,47.2,30.00,ENE,68,0.0,0.0,80,0.00,,,0.00,VWS V14.01,2013-09-24 02:35:00,
2013-09-23 21:44:00,52.3,47.0,30.00,ENE,68,0.0,0.0,82,0.00,,,0.00,VWS V14.01,2013-09-24 02:44:00,
2013-09-23 21:54:00,51.8,46.8,30.03,ENE,68,0.0,0.0,83,0.00,,,0.00,VWS V14.01,2013-09-24 02:54:00,
2013-09-23 22:04:00,51.3,47.2,30.00,ENE,68,0.0,0.0,86,0.00,,,0.00,VWS V14.01,2013-09-24 03:04:00,
2013-09-23 22:09:00,51.1,47.0,30.00,ENE,68,0.0,0.0,86,0.00,,,0.00,VWS V14.01,2013-09-24 03:09:00,
2013-09-23 22:19:00,51.4,48.0,30.03,ENE,68,0.0,1.1,88,0.00,,,0.00,VWS V14.01,2013-09-24 03:19:00,
2013-09-23 22:24:00,51.4,48.0,30.03,ENE,68,0.0,0.0,88,0.00,,,0.00,VWS V14.01,2013-09-24 03:24:00,
2013-09-23 22:29:00,51.4,48.0,30.03,ENE,68,0.0,0.0,88,0.00,,,0.00,VWS V14.01,2013-09-24 03:29:00,
2013-09-23 22:40:00,51.1,48.0,30.03,ENE,68,0.0,0.0,89,0.00,,,0.00,VWS V14.01,2013-09-24 03:40:00,
2013-09-23 22:49:00,50.5,47.4,30.03,ENE,68,0.0,0.0,89,0.00,,,0.00,VWS V14.01,2013-09-24 03:49:00,
2013-09-23 22:54:00,50.4,47.2,30.03,ENE,68,0.0,0.0,89,0.00,,,0.00,VWS V14.01,2013-09-24 03:54:00,
2013-09-23 23:04:00,50.2,47.7,30.03,ENE,68,0.0,0.0,91,0.00,,,0.00,VWS V14.01,2013-09-24 04:04:00,
2013-09-23 23:09:00,50.0,47.5,30.03,ENE,68,0.0,0.0,91,0.00,,,0.00,VWS V14.01,2013-09-24 04:09:00,
2013-09-23 23:14:00,49.6,47.1,30.03,ENE,68,0.0,0.0,91,0.00,,,0.00,VWS V14.01,2013-09-24 04:14:00,
2013-09-23 23:19:00,49.5,47.0,30.03,ENE,68,0.0,0.0,91,0.00,,,0.00,VWS V14.01,2013-09-24 04:19:00,
2013-09-23 23:24:00,49.3,47.1,30.03,ENE,68,0.0,0.0,92,0.00,,,0.00,VWS V14.01,2013-09-24 04:24:00,
2013-09-23 23:30:00,49.3,47.1,30.03,ENE,68,0.0,0.0,92,0.00,,,0.00,VWS V14.01,2013-09-24 04:30:00,
2013-09-23 23:39:00,48.9,47.0,30.00,ENE,68,0.0,0.0,93,0.00,,,0.00,VWS V14.01,2013-09-24 04:39:00,
2013-09-23 23:49:00,48.7,46.8,30.00,ENE,68,0.0,0.0,93,0.00,,,0.00,VWS V14.01,2013-09-24 04:49:00,
2013-09-23 23:54:00,48.7,46.8,30.00,ENE,68,0.0,0.0,93,0.00,,,0.00,VWS V14.01,2013-09-24 04:54:00,